• In Österreich
  • Länderverzeichnis
  • Für 7 Tage
  • Wassertemperatur
  • Satellitenkarten
  • Wetterkarte
  • News
  • Widgets
  • user-avatar
    Anmelden

    Stündliche Wetter Malanje

    Heute, 18 Oktober, Mittwoch

    Zeit Temperatur Niederschläge Wind Luftdruck Luftfeuchtigkeit
    00:00 +21°C° 0 mm 3 m/S 665 mmHg 73%
    01:00 +21°C° 0 mm 3 m/S 665 mmHg 80%
    02:00 +20°C° 0 mm 3 m/S 665 mmHg 83%
    03:00 +20°C° 0 mm 3 m/S 665 mmHg 86%
    04:00 +19°C° 0 mm 3 m/S 665 mmHg 89%
    05:00 +20°C° 0 mm 3 m/S 665 mmHg 87%
    06:00 +20°C° 0 mm 3 m/S 666 mmHg 84%
    07:00 +21°C° 0 mm 3 m/S 666 mmHg 82%
    08:00 +22°C° 0 mm 3 m/S 667 mmHg 76%
    09:00 +25°C° 0 mm 3 m/S 667 mmHg 69%
    10:00 +27°C° 0 mm 3 m/S 667 mmHg 62%
    11:00 +28°C° 0 mm 3 m/S 667 mmHg 56%
    12:00 +30°C° 0 mm 2 m/S 666 mmHg 50%
    13:00 +32°C° 0 mm 2 m/S 666 mmHg 44%
    14:00 +31°C° 0 mm 2 m/S 665 mmHg 46%
    15:00 +30°C° 0 mm 3 m/S 665 mmHg 49%
    16:00 +30°C° 0 mm 3 m/S 664 mmHg 51%
    17:00 +28°C° 0 mm 3 m/S 664 mmHg 55%
    18:00 +27°C° 0 mm 3 m/S 664 mmHg 60%
    19:00 +25°C° 0 mm 3 m/S 665 mmHg 65%
    20:00 +25°C° 0 mm 3 m/S 665 mmHg 67%
    21:00 +24°C° 0 mm 3 m/S 665 mmHg 69%
    22:00 +24°C° 0 mm 3 m/S 666 mmHg 71%
    23:00 +22°C° 0 mm 3 m/S 666 mmHg 75%

    Morgen, 19 Oktober, Donnerstag

    Zeit Temperatur Niederschläge Wind Luftdruck Luftfeuchtigkeit
    00:00 +21°C° 0 mm 3 m/S 665 mmHg 80%
    01:00 +20°C° 0 mm 3 m/S 665 mmHg 84%
    02:00 +20°C° 0 mm 3 m/S 665 mmHg 86%
    03:00 +20°C° 0 mm 3 m/S 665 mmHg 87%
    04:00 +20°C° 0 mm 3 m/S 665 mmHg 89%
    05:00 +20°C° 0 mm 3 m/S 665 mmHg 86%
    06:00 +20°C° 0 mm 3 m/S 665 mmHg 84%
    07:00 +21°C° 0 mm 3 m/S 666 mmHg 82%
    08:00 +24°C° 0 mm 3 m/S 666 mmHg 72%
    09:00 +27°C° 0 mm 3 m/S 667 mmHg 61%
    10:00 +30°C° 0 mm 3 m/S 667 mmHg 51%
    11:00 +31°C° 0 mm 2 m/S 667 mmHg 46%
    12:00 +34°C° 0 mm 2 m/S 666 mmHg 41%
    13:00 +36°C° 0 mm 2 m/S 666 mmHg 36%
    14:00 +35°C° 0 mm 2 m/S 665 mmHg 37%
    15:00 +34°C° 0 mm 3 m/S 665 mmHg 39%
    16:00 +33°C° 0 mm 3 m/S 664 mmHg 40%
    17:00 +30°C° 0 mm 3 m/S 664 mmHg 47%
    18:00 +28°C° 0 mm 4 m/S 664 mmHg 54%
    19:00 +26°C° 0 mm 4 m/S 664 mmHg 61%
    20:00 +25°C° 0,1 mm 4 m/S 665 mmHg 66%
    21:00 +23°C° 0,1 mm 4 m/S 665 mmHg 71%
    22:00 +22°C° 0,1 mm 4 m/S 665 mmHg 76%
    23:00 +21°C° 0 mm 4 m/S 665 mmHg 79%

    übermorgen, 20 Oktober, Freitag

    Zeit Temperatur Niederschläge Wind Luftdruck Luftfeuchtigkeit
    00:00 +21°C° 0 mm 4 m/S 665 mmHg 82%
    01:00 +20°C° 0 mm 4 m/S 664 mmHg 85%
    02:00 +20°C° 0,3 mm 3 m/S 665 mmHg 87%
    03:00 +20°C° 0,3 mm 3 m/S 665 mmHg 88%
    04:00 +19°C° 0,3 mm 2 m/S 665 mmHg 89%
    05:00 +20°C° 0,5 mm 2 m/S 665 mmHg 89%
    06:00 +20°C° 0,5 mm 2 m/S 666 mmHg 89%
    07:00 +20°C° 0,5 mm 2 m/S 667 mmHg 88%
    08:00 +23°C° 0 mm 2 m/S 667 mmHg 78%
    09:00 +25°C° 0 mm 2 m/S 668 mmHg 69%
    10:00 +27°C° 0 mm 2 m/S 668 mmHg 59%
    11:00 +29°C° 0 mm 2 m/S 667 mmHg 52%
    12:00 +31°C° 0 mm 3 m/S 667 mmHg 46%
    13:00 +33°C° 0 mm 3 m/S 666 mmHg 39%
    14:00 +33°C° 0 mm 3 m/S 666 mmHg 39%
    15:00 +32°C° 0 mm 2 m/S 665 mmHg 38%
    16:00 +32°C° 0 mm 2 m/S 665 mmHg 38%
    17:00 +30°C° 0 mm 2 m/S 665 mmHg 43%
    18:00 +28°C° 0 mm 3 m/S 665 mmHg 47%
    19:00 +27°C° 0 mm 3 m/S 665 mmHg 52%
    20:00 +25°C° 0 mm 3 m/S 665 mmHg 55%
    21:00 +24°C° 0 mm 3 m/S 666 mmHg 59%
    22:00 +22°C° 0 mm 3 m/S 666 mmHg 62%
    23:00 +21°C° 0,2 mm 2 m/S 666 mmHg 70%

    21 Oktober, Samstag

    Zeit Temperatur Niederschläge Wind Luftdruck Luftfeuchtigkeit
    00:00 +20°C° 0,2 mm 2 m/S 666 mmHg 78%
    01:00 +20°C° 0,2 mm 2 m/S 665 mmHg 85%
    02:00 +19°C° 0,3 mm 2 m/S 665 mmHg 88%
    03:00 +19°C° 0,3 mm 2 m/S 665 mmHg 91%
    04:00 +18°C° 0,3 mm 2 m/S 665 mmHg 94%
    05:00 +19°C° 0,1 mm 2 m/S 665 mmHg 92%
    06:00 +19°C° 0,1 mm 2 m/S 666 mmHg 91%
    07:00 +19°C° 0,1 mm 2 m/S 666 mmHg 89%
    08:00 +23°C° 0 mm 2 m/S 667 mmHg 76%
    09:00 +25°C° 0 mm 2 m/S 667 mmHg 64%
    10:00 +28°C° 0 mm 2 m/S 667 mmHg 51%
    11:00 +30°C° 0 mm 2 m/S 667 mmHg 45%
    12:00 +32°C° 0 mm 2 m/S 666 mmHg 40%
    13:00 +35°C° 0 mm 2 m/S 666 mmHg 34%
    14:00 +34°C° 0 mm 2 m/S 665 mmHg 35%
    15:00 +33°C° 0 mm 1 m/S 665 mmHg 35%
    16:00 +33°C° 0 mm 1 m/S 665 mmHg 35%
    17:00 +31°C° 0 mm 1 m/S 665 mmHg 41%
    18:00 +28°C° 0 mm 2 m/S 665 mmHg 46%
    19:00 +26°C° 0 mm 2 m/S 665 mmHg 51%
    20:00 +25°C° 0 mm 2 m/S 666 mmHg 54%
    21:00 +24°C° 0 mm 2 m/S 666 mmHg 57%
    22:00 +23°C° 0 mm 2 m/S 666 mmHg 60%
    23:00 +23°C° 0 mm 2 m/S 666 mmHg 65%

    22 Oktober, Sonntag

    Zeit Temperatur Niederschläge Wind Luftdruck Luftfeuchtigkeit
    00:00 +21°C° 0 mm 2 m/S 666 mmHg 70%
    01:00 +20°C° 0 mm 2 m/S 665 mmHg 75%
    02:00 +20°C° 0 mm 2 m/S 665 mmHg 79%
    03:00 +19°C° 0 mm 2 m/S 665 mmHg 82%
    04:00 +19°C° 0 mm 2 m/S 665 mmHg 85%
    05:00 +19°C° 0 mm 2 m/S 666 mmHg 82%
    06:00 +20°C° 0 mm 2 m/S 666 mmHg 79%
    07:00 +22°C° 0 mm 1 m/S 667 mmHg 76%
    08:00 +26°C° 0 mm 1 m/S 667 mmHg 64%
    09:00 +29°C° 0 mm 1 m/S 668 mmHg 52%
    10:00 +33°C° 0 mm 1 m/S 669 mmHg 40%
    11:00 +35°C° 0 mm 1 m/S 668 mmHg 36%
    12:00 +36°C° 0 mm 1 m/S 668 mmHg 33%
    13:00 +39°C° 0 mm 1 m/S 667 mmHg 30%
    14:00 +34°C° 0 mm 0 m/S 666 mmHg 33%
    15:00 +32°C° 0 mm 0 m/S 666 mmHg 36%
    16:00 +30°C° 0 mm 0 m/S 665 mmHg 39%
    17:00 +30°C° 0,1 mm 1 m/S 665 mmHg 44%
    18:00 +28°C° 0,1 mm 1 m/S 664 mmHg 49%
    19:00 +26°C° 0,1 mm 1 m/S 664 mmHg 54%
    20:00 +26°C° 0 mm 1 m/S 665 mmHg 57%
    21:00 +25°C° 0 mm 1 m/S 665 mmHg 60%
    22:00 +24°C° 0 mm 1 m/S 665 mmHg 63%
    23:00 +23°C° 0 mm 2 m/S 665 mmHg 69%

    23 Oktober, Montag

    Zeit Temperatur Niederschläge Wind Luftdruck Luftfeuchtigkeit
    00:00 +21°C° 0 mm 2 m/S 665 mmHg 74%
    01:00 +20°C° 0 mm 2 m/S 665 mmHg 80%
    02:00 +20°C° 0 mm 2 m/S 664 mmHg 84%
    03:00 +20°C° 0 mm 1 m/S 664 mmHg 88%
    04:00 +20°C° 0 mm 1 m/S 664 mmHg 92%
    05:00 +21°C° 0 mm 1 m/S 665 mmHg 87%
    06:00 +22°C° 0 mm 1 m/S 666 mmHg 83%
    07:00 +23°C° 0 mm 1 m/S 666 mmHg 79%
    08:00 +26°C° 0 mm 1 m/S 667 mmHg 66%
    09:00 +30°C° 0 mm 1 m/S 668 mmHg 53%
    10:00 +33°C° 0 mm 1 m/S 668 mmHg 40%
    11:00 +34°C° 0 mm 1 m/S 667 mmHg 36%
    12:00 +35°C° 0 mm 1 m/S 667 mmHg 32%
    13:00 +37°C° 0 mm 1 m/S 666 mmHg 28%
    14:00 +35°C° 0 mm 1 m/S 665 mmHg 31%
    15:00 +34°C° 0 mm 1 m/S 665 mmHg 34%
    16:00 +32°C° 0 mm 1 m/S 664 mmHg 36%
    17:00 +31°C° 0 mm 1 m/S 664 mmHg 40%
    18:00 +29°C° 0 mm 1 m/S 664 mmHg 45%
    19:00 +27°C° 0 mm 1 m/S 664 mmHg 49%
    20:00 +26°C° 0 mm 1 m/S 665 mmHg 54%
    21:00 +25°C° 0 mm 2 m/S 665 mmHg 58%
    22:00 +24°C° 0 mm 2 m/S 665 mmHg 63%
    23:00 +23°C° 0,1 mm 2 m/S 665 mmHg 69%
    Mehr zeigen